Home   Weather   Ruda Śląska   Past weeks

Flag for Poland Past Weather in Ruda Śląska, Poland — Yesterday and Last 2 Weeks

Now
70 °F

Sunny.


Feels Like: 70 °F
Forecast: 52 / 74 °F
Wind: 10 mph from Southwest

Location: Katowice Airport

Current Time: Sep 30, 2016 at 5:20:56 PM

Latest Report: Sep 30, 2016 at 5:00 PM


Visibility: 10 mi

Pressure: 29.98 "Hg

Humidity: 50%

Dew Point: 50 °F

Location of Ruda ŚląskaLocation

Past Weather in Ruda Śląska — Graph

°F

Ruda Śląska Temperature Yesterday

Maximum temperature yesterday: 72 °F (at 1:00 PM)
Minimum temperature yesterday: 59 °F (at 12:00 AM)
Average temperature yesterday: 65 °F

High & Low Weather Summary for the Past Weeks

 TemperatureHumidityPressure
High81 °F (Sep 16, 1:30 PM)100% (Sep 16, 5:30 AM)30.36 "Hg (Sep 16, 5:30 AM)
Low32 °F (Sep 22, 6:00 AM)37% (Sep 16, 2:00 PM)29.83 "Hg (Sep 17, 5:00 AM)
Average54 °F81%30.10 "Hg
* Reported Sep 15 4:00 PM — Sep 30 4:00 PM, Ruda Śląska, Weather by CustomWeather, © 2016

Note: Actual official high and low records may vary slightly from our data, if they occured in-between our weather recording intervals... More about our weather records

Advertising

Ruda Śląska Weather History for the Previous 24 Hours

Scroll right to see more
 ConditionsComfort  
Time TempWeatherWind HumidityBarometerVisibility
4:00 PM
Fri, Sep 30
73 °FSunny.12 mph47%29.98 "Hg10 mi
3:30 PM72 °FPassing clouds.12 mph50%29.98 "HgN/A
3:00 PM73 °FPassing clouds.16 mph47%29.98 "HgN/A
2:30 PM72 °FPassing clouds.16 mph47%30.01 "HgN/A
2:00 PM72 °FPassing clouds.14 mph50%30.01 "HgN/A
1:30 PM72 °FPassing clouds.12 mph50%30.01 "HgN/A
1:00 PM72 °FPassing clouds.12 mph53%30.01 "HgN/A
12:30 PM70 °FSunny.13 mph57%30.01 "Hg10 mi
12:00 PM70 °FSunny.14 mph57%30.01 "Hg10 mi
11:30 AM70 °FPassing clouds.10 mph57%30.01 "HgN/A
11:00 AM68 °FSunny.13 mph60%30.01 "Hg10 mi
10:30 AM66 °FSunny.9 mph64%30.01 "Hg10 mi
10:00 AM64 °FSunny.10 mph68%30.01 "Hg10 mi
9:30 AM63 °FPassing clouds.8 mph68%30.01 "HgN/A
9:00 AM63 °FSunny.10 mph68%29.98 "Hg10 mi
8:30 AM63 °FSunny.10 mph68%29.98 "Hg10 mi
8:00 AM59 °FSunny.8 mph77%29.98 "Hg10 mi
7:30 AM59 °FSunny.8 mph77%29.98 "Hg10 mi
7:00 AM59 °FSunny.8 mph77%29.98 "Hg10 mi
6:30 AM59 °FClear.6 mph72%29.98 "Hg10 mi
6:00 AM59 °FClear.8 mph77%29.98 "Hg10 mi
5:30 AM59 °FClear.10 mph77%29.98 "Hg10 mi
5:00 AM61 °FClear.13 mph72%29.95 "Hg10 mi
4:30 AM61 °FClear.13 mph68%29.95 "Hg10 mi
4:00 AM61 °FClear.14 mph68%29.98 "Hg10 mi
3:30 AM63 °FClear.14 mph64%29.98 "Hg10 mi
3:00 AM61 °FClear.13 mph68%29.98 "Hg10 mi
2:30 AM63 °FClear.12 mph64%29.98 "Hg10 mi
2:00 AM63 °FClear.14 mph64%29.98 "Hg10 mi
1:30 AM61 °FPassing clouds.5 mph68%29.98 "HgN/A
1:00 AM61 °FPassing clouds.6 mph68%29.98 "HgN/A
12:30 AM61 °FClear.7 mph68%29.98 "Hg10 mi
12:00 AM63 °FPassing clouds.8 mph64%30.01 "HgN/A
11:30 PM
Thu, Sep 29
63 °FClear.9 mph64%30.01 "Hg10 mi
11:00 PM63 °FPassing clouds.7 mph64%30.01 "HgN/A
10:30 PM63 °FClear.8 mph64%30.01 "Hg10 mi
10:00 PM63 °FClear.6 mph64%30.01 "Hg10 mi
9:30 PM64 °FClear.8 mph60%30.01 "Hg10 mi
9:00 PM64 °FClear.10 mph60%30.01 "Hg10 mi
8:30 PM66 °FClear.10 mph52%30.01 "Hg10 mi
8:00 PM66 °FClear.12 mph52%30.04 "Hg10 mi
7:30 PM66 °FClear.9 mph56%30.04 "Hg10 mi
7:00 PM66 °FClear.8 mph56%30.04 "Hg10 mi
6:30 PM66 °FClear.7 mph56%30.04 "Hg10 mi
6:00 PM68 °FSunny.13 mph53%30.04 "Hg10 mi
5:30 PM70 °FSunny.13 mph50%30.04 "Hg10 mi
5:00 PM72 °FSunny.14 mph50%30.04 "Hg10 mi
Weather by CustomWeather, © 2016

See weather overviewHow to use our weather pages